Project,Study,Ord_Occ,Event_Num,Date_Time_UTC,Date_Time_PST,Lat_Dec,Lon_Dec,Sta_ID,Line,Sta,Depth,Pressure,Temp0,Temp1,Salt0,CorrSalt0,Salt1,CorrSalt1,O2ml/L,AveCorrO2ml/L,StaCorrO2ml/L,FluorV,AveEstChl,StaEstChl,ISUSV,AveEstNO3,StaEstNO3,SigThetaTS0,SigThetaTS1,BAT,XMiss,SPAR,PAR,BTL_Depth,BTL_Temp,BTL_Salt,BTL_O2ml/L,BTL_Chl,BTL_Pha,BTL_NO3
CalCOFI,0701JD,061,608,27-Jan-2007 5:43:31 PM,27-Jan-2007 9:43:31 AM,33.48482,-122.53500,080.0 080.0,080.0,080.0,509.000,513.271,6.1502,6.1494,34.2105,34.2092,34.2084,34.2085,0.54663,0.63,0.67,0.0247,,,1.6929,39.20,38.335,26.9155,26.9139,0.3993,90.4987,4.6850e+00,9.9990e+03,509,6.19 ,34.218,  .58,,,39.2
CalCOFI,0701JD,061,608,27-Jan-2007 5:43:33 PM,27-Jan-2007 9:43:33 AM,33.48482,-122.53500,080.0 080.0,080.0,080.0,508.000,512.261,6.1424,6.1396,34.2107,34.2094,34.2082,34.2083,0.54627,0.63,0.67,0.0249,,,1.6902,39.12,38.252,26.9166,26.9149,0.3992,90.5008,4.8151e+00,9.9990e+03,,,,,,,
CalCOFI,0701JD,061,608,27-Jan-2007 5:43:36 PM,27-Jan-2007 9:43:36 AM,33.48482,-122.53500,080.0 080.0,080.0,080.0,507.000,511.251,6.1877,6.1922,34.2178,34.2165,34.2141,34.2142,0.53838,0.62,0.66,0.0246,,,1.7296,40.28,39.463,26.9164,26.9130,0.3987,90.5084,4.9171e+00,9.9990e+03,,,,,,,
CalCOFI,0701JD,061,608,27-Jan-2007 5:43:37 PM,27-Jan-2007 9:43:37 AM,33.48482,-122.53500,080.0 080.0,080.0,080.0,506.000,510.242,6.2515,6.2518,34.2251,34.2238,34.2211,34.2212,0.53090,0.61,0.65,0.0246,,,1.7377,40.52,39.712,26.9140,26.9109,-9.990e-29,90.5008,5.0707e+00,9.9990e+03,,,,,,,
CalCOFI,0701JD,061,608,27-Jan-2007 5:43:38 PM,27-Jan-2007 9:43:38 AM,33.48482,-122.53500,080.0 080.0,080.0,080.0,505.000,509.232,6.2789,6.2784,34.2281,34.2268,34.2245,34.2246,0.52582,0.61,0.64,0.0247,,,1.7339,40.41,39.595,26.9128,26.9101,-9.990e-29,90.5009,5.0403e+00,9.9990e+03,,,,,,,
CalCOFI,0701JD,061,608,27-Jan-2007 5:43:39 PM,27-Jan-2007 9:43:39 AM,33.48482,-122.53500,080.0 080.0,080.0,080.0,504.000,508.223,6.3035,6.3037,34.2310,34.2297,34.2278,34.2279,0.52155,0.60,0.64,0.0242,,,1.6906,39.14,38.264,26.9120,26.9094,-9.990e-29,90.5009,5.2737e+00,9.9990e+03,,,,,,,
CalCOFI,0701JD,061,608,27-Jan-2007 5:43:41 PM,27-Jan-2007 9:43:41 AM,33.48482,-122.53500,080.0 080.0,080.0,080.0,503.000,507.213,6.3154,6.3162,34.2324,34.2311,34.2298,34.2299,0.51711,0.60,0.63,0.0246,,,1.6921,39.18,38.310,26.9116,26.9094,-9.990e-29,90.5009,4.4164e+00,9.9990e+03,,,,,,,
CalCOFI,0701JD,061,608,27-Jan-2007 5:43:42 PM,27-Jan-2007 9:43:42 AM,33.48482,-122.53500,080.0 080.0,080.0,080.0,502.000,506.203,6.3283,6.3252,34.2342,34.2329,34.2312,34.2313,0.51399,0.59,0.63,0.0247,,,1.7119,39.76,38.919,26.9113,26.9093,-9.990e-29,90.5009,5.1894e+00,9.9990e+03,,,,,,,
CalCOFI,0701JD,061,608,27-Jan-2007 5:43:43 PM,27-Jan-2007 9:43:43 AM,33.48482,-122.53500,080.0 080.0,080.0,080.0,501.000,505.194,6.3573,6.3491,34.2373,34.2360,34.2337,34.2338,0.51035,0.59,0.62,0.0246,,,1.7024,39.48,38.627,26.9100,26.9082,-9.990e-29,90.5009,5.1169e+00,9.9990e+03,,,,,,,
CalCOFI,0701JD,061,608,27-Jan-2007 5:43:44 PM,27-Jan-2007 9:43:44 AM,-9.990e-29,-122.53500,080.0 080.0,080.0,080.0,500.000,504.184,6.3668,6.3651,34.2379,34.2366,34.2353,34.2354,0.50725,0.58,0.62,0.0247,,,1.6954,39.28,38.412,26.9092,26.9073,0.3989,90.5089,4.9724e+00,9.9990e+03,,,,,,,
CalCOFI,0701JD,061,608,27-Jan-2007 5:43:45 PM,27-Jan-2007 9:43:45 AM,-9.990e-29,-122.53500,080.0 080.0,080.0,080.0,499.000,503.175,6.3856,6.3873,34.2404,34.2391,34.2368,34.2369,0.50351,0.58,0.61,0.0246,,,1.6999,39.41,38.550,26.9087,26.9057,0.3991,90.5023,5.3088e+00,9.9990e+03,,,,,,,
CalCOFI,0701JD,061,608,27-Jan-2007 5:43:46 PM,27-Jan-2007 9:43:46 AM,-9.990e-29,-122.53500,080.0 080.0,080.0,080.0,498.000,502.165,6.4261,6.4323,34.2458,34.2445,34.2414,34.2415,0.49981,0.58,0.61,0.0250,,,1.6583,38.19,37.272,26.9077,26.9034,0.3996,90.4917,4.8043e+00,9.9990e+03,,,,,,,
CalCOFI,0701JD,061,608,27-Jan-2007 5:43:47 PM,27-Jan-2007 9:43:47 AM,-9.990e-29,-122.53500,080.0 080.0,080.0,080.0,497.000,501.155,6.4770,6.4783,34.2501,34.2488,34.2468,34.2469,0.49652,0.57,0.61,0.0250,,,1.6608,38.26,37.348,26.9044,26.9016,0.3990,90.5055,4.7997e+00,9.9990e+03,,,,,,,
CalCOFI,0701JD,061,608,27-Jan-2007 5:43:47 PM,27-Jan-2007 9:43:47 AM,-9.990e-29,-122.53500,080.0 080.0,080.0,080.0,496.000,500.146,6.5088,6.5105,34.2541,34.2528,34.2508,34.2509,0.49389,0.57,0.60,0.0247,,,1.6716,38.58,37.680,26.9035,26.9006,0.3996,90.4922,4.8853e+00,9.9990e+03,,,,,,,
CalCOFI,0701JD,061,608,27-Jan-2007 5:43:49 PM,27-Jan-2007 9:43:49 AM,33.48500,-122.53500,080.0 080.0,080.0,080.0,495.000,499.136,6.5320,6.5373,34.2564,34.2551,34.2538,34.2539,0.48972,0.56,0.60,0.0247,,,1.7070,39.62,38.768,26.9022,26.8995,0.3990,90.5062,4.8955e+00,9.9990e+03,,,,,,,
CalCOFI,0701JD,061,608,27-Jan-2007 5:43:50 PM,27-Jan-2007 9:43:50 AM,33.48500,-122.53500,080.0 080.0,080.0,080.0,494.000,498.127,6.5482,6.5446,34.2562,34.2549,34.2537,34.2538,0.48764,0.56,0.59,0.0247,,,1.6956,39.28,38.418,26.8999,26.8984,0.3992,90.5007,5.0361e+00,9.9990e+03,,,,,,,
CalCOFI,0701JD,061,608,27-Jan-2007 5:43:51 PM,27-Jan-2007 9:43:51 AM,33.48500,-122.53500,080.0 080.0,080.0,080.0,493.000,497.117,6.5795,6.5755,34.2573,34.2560,34.2542,34.2543,0.48577,0.56,0.59,0.0249,,,1.6961,39.30,38.433,26.8966,26.8947,0.3987,90.5128,4.9360e+00,9.9990e+03,,,,,,,
CalCOFI,0701JD,061,608,27-Jan-2007 5:43:52 PM,27-Jan-2007 9:43:52 AM,33.48500,-122.53500,080.0 080.0,080.0,080.0,492.000,496.108,6.5973,6.5969,34.2565,34.2552,34.2546,34.2547,0.48557,0.56,0.59,0.0250,,,1.6851,38.97,38.095,26.8936,26.8922,0.3985,90.5169,4.9692e+00,9.9990e+03,,,,,,,
CalCOFI,0701JD,061,608,27-Jan-2007 5:43:53 PM,27-Jan-2007 9:43:53 AM,33.48500,-122.53500,080.0 080.0,080.0,080.0,491.000,495.098,6.5999,6.6009,34.2565,34.2552,34.2546,34.2547,0.48638,0.56,0.59,0.0248,,,1.6550,38.09,37.170,26.8933,26.8917,0.3987,90.5111,4.7427e+00,9.9990e+03,,,,,,,
CalCOFI,0701JD,061,608,27-Jan-2007 5:43:53 PM,27-Jan-2007 9:43:53 AM,33.48500,-122.53500,080.0 080.0,080.0,080.0,490.000,494.089,6.6065,6.6081,34.2572,34.2559,34.2550,34.2551,0.48588,0.56,0.59,0.0248,,,1.6677,38.46,37.560,26.8929,26.8910,0.3986,90.5139,5.1871e+00,9.9990e+03,,,,,,,
CalCOFI,0701JD,061,608,27-Jan-2007 5:43:54 PM,27-Jan-2007 9:43:54 AM,33.48500,-122.53500,080.0 080.0,080.0,080.0,489.000,493.079,6.6237,6.6227,34.2581,34.2568,34.2554,34.2555,0.48650,0.56,0.59,0.0248,,,1.6757,38.70,37.806,26.8914,26.8894,0.3987,90.5127,5.1209e+00,9.9990e+03,,,,,,,
CalCOFI,0701JD,061,608,27-Jan-2007 5:43:55 PM,27-Jan-2007 9:43:55 AM,33.48500,-122.53500,080.0 080.0,080.0,080.0,488.000,492.070,6.6435,6.6421,34.2580,34.2567,34.2556,34.2557,0.48719,0.56,0.59,0.0244,,,1.6733,38.63,37.733,26.8887,26.8869,0.3987,90.5114,4.6578e+00,9.9990e+03,,,,,,,
CalCOFI,0701JD,061,608,27-Jan-2007 5:43:56 PM,27-Jan-2007 9:43:56 AM,33.48500,-122.53500,080.0 080.0,080.0,080.0,487.000,491.060,6.6606,6.6588,34.2575,34.2562,34.2553,34.2554,0.48824,0.56,0.60,0.0251,,,1.6571,38.15,37.235,26.8860,26.8845,0.3984,90.5199,5.0401e+00,9.9990e+03,,,,,,,
CalCOFI,0701JD,061,608,27-Jan-2007 5:43:58 PM,27-Jan-2007 9:43:58 AM,33.48500,-122.53500,080.0 080.0,080.0,080.0,486.000,490.050,6.6643,6.6651,34.2573,34.2560,34.2555,34.2556,0.48918,0.56,0.60,0.0248,,,1.6837,38.93,38.052,26.8853,26.8837,0.3984,90.5182,4.9968e+00,9.9990e+03,,,,,,,
CalCOFI,0701JD,061,608,27-Jan-2007 5:44:00 PM,27-Jan-2007 9:44:00 AM,33.48500,-122.53500,080.0 080.0,080.0,080.0,485.000,489.041,6.6681,6.6693,34.2573,34.2560,34.2552,34.2553,0.49103,0.56,0.60,0.0244,,,1.6956,39.28,38.418,26.8848,26.8830,0.3997,90.4892,4.6369e+00,9.9990e+03,,,,,,,
CalCOFI,0701JD,061,608,27-Jan-2007 5:44:01 PM,27-Jan-2007 9:44:01 AM,33.48500,-122.53500,080.0 080.0,080.0,080.0,484.000,488.031,6.6799,6.6800,34.2573,34.2560,34.2552,34.2553,0.49270,0.57,0.60,0.0246,,,1.6442,37.77,36.838,26.8832,26.8815,0.3984,90.5183,4.7039e+00,9.9990e+03,,,,,,,
CalCOFI,0701JD,061,608,27-Jan-2007 5:44:02 PM,27-Jan-2007 9:44:02 AM,33.48500,-122.53500,080.0 080.0,080.0,080.0,483.000,487.022,6.6973,6.6971,34.2573,34.2560,34.2551,34.2552,0.49412,0.57,0.60,0.0248,,,1.6400,37.65,36.709,26.8809,26.8792,0.3986,90.5145,5.0888e+00,9.9990e+03,,,,,,,
CalCOFI,0701JD,061,608,27-Jan-2007 5:44:02 PM,27-Jan-2007 9:44:02 AM,33.48500,-122.53500,080.0 080.0,080.0,080.0,482.000,486.012,6.7206,6.7210,34.2567,34.2554,34.2546,34.2547,0.49521,0.57,0.60,0.0247,,,1.6397,37.64,36.700,26.8773,26.8755,0.3987,90.5126,5.3983e+00,9.9990e+03,,,,,,,
CalCOFI,0701JD,061,608,27-Jan-2007 5:44:03 PM,27-Jan-2007 9:44:03 AM,33.48500,-122.53500,080.0 080.0,080.0,080.0,481.000,485.003,6.7277,6.7278,34.2560,34.2547,34.2543,34.2544,0.49797,0.57,0.61,0.0245,,,1.6471,37.86,36.927,26.8758,26.8745,0.3990,90.5050,5.0122e+00,9.9990e+03,,,,,,,
CalCOFI,0701JD,061,608,27-Jan-2007 5:44:04 PM,27-Jan-2007 9:44:04 AM,33.48500,-122.53500,080.0 080.0,080.0,080.0,480.000,483.993,6.7318,6.7317,34.2556,34.2543,34.2541,34.2542,0.49934,0.57,0.61,0.0245,,,1.6791,38.80,37.911,26.8749,26.8737,0.3985,90.5157,5.1196e+00,9.9990e+03,,,,,,,
CalCOFI,0701JD,061,608,27-Jan-2007 5:44:04 PM,27-Jan-2007 9:44:04 AM,33.48500,-122.53500,080.0 080.0,080.0,080.0,479.000,482.984,6.7362,6.7367,34.2554,34.2541,34.2537,34.2538,0.49982,0.58,0.61,0.0244,,,1.6638,38.35,37.441,26.8741,26.8727,0.3989,90.5075,4.9914e+00,9.9990e+03,,,,,,,
CalCOFI,0701JD,061,608,27-Jan-2007 5:44:05 PM,27-Jan-2007 9:44:05 AM,33.48500,-122.53500,080.0 080.0,080.0,080.0,478.000,481.974,6.7392,6.7398,34.2552,34.2539,34.2538,34.2539,0.50078,0.58,0.61,0.0249,,,1.6469,37.85,36.921,26.8736,26.8724,0.3989,90.5067,4.9693e+00,9.9990e+03,,,,,,,
CalCOFI,0701JD,061,608,27-Jan-2007 5:44:06 PM,27-Jan-2007 9:44:06 AM,33.48500,-122.53500,080.0 080.0,080.0,080.0,477.000,480.965,6.7439,6.7439,34.2556,34.2543,34.2539,34.2540,0.50195,0.58,0.61,0.0247,,,1.6727,38.61,37.714,26.8733,26.8719,0.3994,90.4954,5.0263e+00,9.9990e+03,,,,,,,
CalCOFI,0701JD,061,608,27-Jan-2007 5:44:07 PM,27-Jan-2007 9:44:07 AM,33.48500,-122.53500,080.0 080.0,080.0,080.0,476.000,479.955,6.7564,6.7552,34.2553,34.2540,34.2535,34.2536,0.50472,0.58,0.62,0.0248,,,1.6584,38.19,37.275,26.8713,26.8700,0.3990,90.5062,5.1773e+00,9.9990e+03,,,,,,,
CalCOFI,0701JD,061,608,27-Jan-2007 5:44:09 PM,27-Jan-2007 9:44:09 AM,33.48500,-122.53500,080.0 080.0,080.0,080.0,475.000,478.946,6.7707,6.7703,34.2555,34.2542,34.2534,34.2535,0.50668,0.58,0.62,0.0247,,,1.6484,37.90,36.967,26.8695,26.8679,0.3988,90.5106,4.8780e+00,9.9990e+03,,,,,,,
CalCOFI,0701JD,061,608,27-Jan-2007 5:44:10 PM,27-Jan-2007 9:44:10 AM,33.48500,-122.53500,080.0 080.0,080.0,080.0,474.000,477.936,6.7896,6.7848,34.2552,34.2539,34.2533,34.2534,0.50840,0.59,0.62,0.0251,,,1.6644,38.37,37.459,26.8667,26.8659,0.3988,90.5090,5.2513e+00,9.9990e+03,,,,,,,
CalCOFI,0701JD,061,608,27-Jan-2007 5:44:12 PM,27-Jan-2007 9:44:12 AM,33.48500,-122.53500,080.0 080.0,080.0,080.0,473.000,476.927,6.7942,6.7931,34.2548,34.2535,34.2534,34.2535,0.51003,0.59,0.62,0.0247,,,1.6235,37.17,36.202,26.8658,26.8649,0.3989,90.5070,4.3826e+00,9.9990e+03,,,,,,,
CalCOFI,0701JD,061,608,27-Jan-2007 5:44:12 PM,27-Jan-2007 9:44:12 AM,33.48500,-122.53500,080.0 080.0,080.0,080.0,472.000,475.918,6.7970,6.7973,34.2547,34.2534,34.2534,34.2535,0.51045,0.59,0.62,0.0247,,,1.6202,37.07,36.101,26.8654,26.8643,0.3992,90.5008,4.8658e+00,9.9990e+03,,,,,,,
CalCOFI,0701JD,061,608,27-Jan-2007 5:44:13 PM,27-Jan-2007 9:44:13 AM,33.48500,-122.53500,080.0 080.0,080.0,080.0,471.000,474.908,6.7985,6.7991,34.2546,34.2533,34.2534,34.2535,0.51141,0.59,0.62,0.0245,,,1.6187,37.02,36.054,26.8650,26.8640,-9.990e-29,90.5009,5.1956e+00,9.9990e+03,,,,,,,
CalCOFI,0701JD,061,608,27-Jan-2007 5:44:14 PM,27-Jan-2007 9:44:14 AM,33.48500,-122.53500,080.0 080.0,080.0,080.0,470.000,473.899,6.8056,6.8060,34.2559,34.2546,34.2538,34.2539,0.51112,0.59,0.62,0.0248,,,1.6501,37.95,37.020,26.8651,26.8633,-9.990e-29,90.5009,4.9938e+00,9.9990e+03,,,,,,,
CalCOFI,0701JD,061,608,27-Jan-2007 5:44:15 PM,27-Jan-2007 9:44:15 AM,33.48500,-122.53500,080.0 080.0,080.0,080.0,469.000,472.889,6.8294,6.8272,34.2569,34.2556,34.2549,34.2550,0.51210,0.59,0.62,0.0249,,,1.6532,38.04,37.115,26.8627,26.8614,-9.990e-29,90.5009,4.3617e+00,9.9990e+03,,,,,,,
CalCOFI,0701JD,061,608,27-Jan-2007 5:44:16 PM,27-Jan-2007 9:44:16 AM,33.48500,-122.53500,080.0 080.0,080.0,080.0,468.000,471.880,6.8454,6.8409,34.2576,34.2563,34.2556,34.2557,0.51388,0.59,0.63,0.0247,,,1.6512,37.98,37.053,26.8611,26.8600,0.3990,90.5020,5.1052e+00,9.9990e+03,,,,,,,
CalCOFI,0701JD,061,608,27-Jan-2007 5:44:17 PM,27-Jan-2007 9:44:17 AM,33.48500,-122.53500,080.0 080.0,080.0,080.0,467.000,470.870,6.8687,6.8676,34.2589,34.2576,34.2566,34.2567,0.51553,0.59,0.63,0.0247,,,1.6457,37.82,36.884,26.8589,26.8573,0.3989,90.5080,4.8433e+00,9.9990e+03,,,,,,,
CalCOFI,0701JD,061,608,27-Jan-2007 5:44:17 PM,27-Jan-2007 9:44:17 AM,33.48500,-122.53500,080.0 080.0,080.0,080.0,466.000,469.861,6.8868,6.8859,34.2586,34.2573,34.2569,34.2570,0.51539,0.59,0.63,0.0250,,,1.6387,37.61,36.669,26.8562,26.8550,0.3988,90.5091,5.2202e+00,9.9990e+03,,,,,,,
CalCOFI,0701JD,061,608,27-Jan-2007 5:44:18 PM,27-Jan-2007 9:44:18 AM,33.48500,-122.53500,080.0 080.0,080.0,080.0,465.000,468.851,6.8924,6.8923,34.2582,34.2569,34.2571,34.2572,0.51672,0.60,0.63,0.0249,,,1.6457,37.82,36.884,26.8552,26.8543,0.3995,90.4947,4.9574e+00,9.9990e+03,,,,,,,
CalCOFI,0701JD,061,608,27-Jan-2007 5:44:19 PM,27-Jan-2007 9:44:19 AM,33.48500,-122.53500,080.0 080.0,080.0,080.0,464.000,467.842,6.8965,6.8972,34.2582,34.2569,34.2568,34.2569,0.51832,0.60,0.63,0.0250,,,1.6404,37.66,36.721,26.8545,26.8534,0.3987,90.5116,4.6348e+00,9.9990e+03,,,,,,,
CalCOFI,0701JD,061,608,27-Jan-2007 5:44:20 PM,27-Jan-2007 9:44:20 AM,33.48500,-122.53500,080.0 080.0,080.0,080.0,463.000,466.833,6.9039,6.9035,34.2581,34.2568,34.2567,34.2568,0.51975,0.60,0.63,0.0249,,,1.6114,36.81,35.830,26.8535,26.8525,0.3991,90.5036,5.0873e+00,9.9990e+03,,,,,,,
CalCOFI,0701JD,061,608,27-Jan-2007 5:44:22 PM,27-Jan-2007 9:44:22 AM,33.48500,-122.53500,080.0 080.0,080.0,080.0,462.000,465.823,6.9090,6.9095,34.2583,34.2570,34.2570,34.2571,0.52072,0.60,0.63,0.0246,,,1.6325,37.43,36.479,26.8529,26.8518,0.3989,90.5086,5.1496e+00,9.9990e+03,,,,,,,
CalCOFI,0701JD,061,608,27-Jan-2007 5:44:23 PM,27-Jan-2007 9:44:23 AM,33.48500,-122.53500,080.0 080.0,080.0,080.0,461.000,464.814,6.9240,6.9233,34.2593,34.2580,34.2580,34.2581,0.52116,0.60,0.64,0.0244,,,1.6804,38.84,37.951,26.8517,26.8507,0.3984,90.5192,4.9075e+00,9.9990e+03,,,,,,,
CalCOFI,0701JD,061,608,27-Jan-2007 5:44:24 PM,27-Jan-2007 9:44:24 AM,33.48500,-122.53500,080.0 080.0,080.0,080.0,460.000,463.804,6.9377,6.9384,34.2604,34.2591,34.2585,34.2586,0.52166,0.60,0.64,0.0245,,,1.6288,37.32,36.365,26.8506,26.8490,0.3985,90.5169,4.7009e+00,9.9990e+03,,,,,,,
CalCOFI,0701JD,061,608,27-Jan-2007 5:44:25 PM,27-Jan-2007 9:44:25 AM,-9.990e-29,-122.53500,080.0 080.0,080.0,080.0,459.000,462.795,6.9537,6.9540,34.2606,34.2593,34.2592,34.2593,0.52307,0.60,0.64,0.0249,,,1.6549,38.09,37.167,26.8486,26.8475,0.3984,90.5199,4.5121e+00,9.9990e+03,,,,,,,
CalCOFI,0701JD,061,608,27-Jan-2007 5:44:26 PM,27-Jan-2007 9:44:26 AM,-9.990e-29,-122.53500,080.0 080.0,080.0,080.0,458.000,461.786,6.9518,6.9524,34.2588,34.2575,34.2584,34.2585,0.52442,0.61,0.64,0.0247,,,1.6421,37.71,36.774,26.8475,26.8470,0.3990,90.5049,4.5173e+00,9.9990e+03,,,,,,,
CalCOFI,0701JD,061,608,27-Jan-2007 5:44:26 PM,27-Jan-2007 9:44:26 AM,-9.990e-29,-122.53500,080.0 080.0,080.0,080.0,457.000,460.776,6.9524,6.9522,34.2589,34.2576,34.2577,34.2578,0.52384,0.60,0.64,0.0250,,,1.6286,37.32,36.359,26.8474,26.8465,0.3986,90.5148,5.1288e+00,9.9990e+03,,,,,,,
CalCOFI,0701JD,061,608,27-Jan-2007 5:44:27 PM,27-Jan-2007 9:44:27 AM,-9.990e-29,-122.53500,080.0 080.0,080.0,080.0,456.000,459.767,6.9707,6.9717,34.2603,34.2590,34.2585,34.2586,0.52498,0.61,0.64,0.0245,,,1.6288,37.32,36.365,26.8461,26.8445,0.3988,90.5088,4.8901e+00,9.9990e+03,,,,,,,
CalCOFI,0701JD,061,608,27-Jan-2007 5:44:28 PM,27-Jan-2007 9:44:28 AM,33.48516,-122.53500,080.0 080.0,080.0,080.0,455.000,458.758,6.9925,6.9896,34.2617,34.2604,34.2595,34.2596,0.52442,0.61,0.64,0.0245,,,1.6491,37.92,36.989,26.8441,26.8428,0.3986,90.5152,4.9587e+00,9.9990e+03,,,,,,,
CalCOFI,0701JD,061,608,27-Jan-2007 5:44:29 PM,27-Jan-2007 9:44:29 AM,33.48516,-122.53500,080.0 080.0,080.0,080.0,454.000,457.748,6.9998,6.9974,34.2622,34.2609,34.2605,34.2606,0.52342,0.60,0.64,0.0247,,,1.6710,38.56,37.662,26.8435,26.8425,0.3987,90.5117,4.9920e+00,9.9990e+03,,,,,,,
CalCOFI,0701JD,061,608,27-Jan-2007 5:44:30 PM,27-Jan-2007 9:44:30 AM,33.48516,-122.53500,080.0 080.0,080.0,080.0,453.000,456.739,7.0082,7.0085,34.2634,34.2621,34.2620,34.2621,0.52306,0.60,0.64,0.0249,,,1.6397,37.64,36.700,26.8433,26.8421,0.3984,90.5180,5.2571e+00,9.9990e+03,,,,,,,
CalCOFI,0701JD,061,608,27-Jan-2007 5:44:31 PM,27-Jan-2007 9:44:31 AM,33.48516,-122.53500,080.0 080.0,080.0,080.0,452.000,455.729,7.0163,7.0161,34.2641,34.2628,34.2629,34.2630,0.52341,0.60,0.64,0.0245,,,1.6120,36.83,35.849,26.8427,26.8418,0.3985,90.5170,4.5159e+00,9.9990e+03,,,,,,,
CalCOFI,0701JD,061,608,27-Jan-2007 5:44:32 PM,27-Jan-2007 9:44:32 AM,33.48516,-122.53500,080.0 080.0,080.0,080.0,451.000,454.720,7.0232,7.0222,34.2647,34.2634,34.2634,34.2635,0.52398,0.60,0.64,0.0247,,,1.6374,37.57,36.629,26.8423,26.8413,0.3991,90.5022,4.8591e+00,9.9990e+03,,,,,,,
CalCOFI,0701JD,061,608,27-Jan-2007 5:44:34 PM,27-Jan-2007 9:44:34 AM,33.48516,-122.53500,080.0 080.0,080.0,080.0,450.000,453.711,7.0347,7.0313,34.2647,34.2634,34.2636,34.2637,0.52425,0.60,0.64,0.0243,,,1.6504,37.96,37.029,26.8407,26.8402,0.3984,90.5179,5.0398e+00,9.9990e+03,,,,,,,
CalCOFI,0701JD,061,608,27-Jan-2007 5:44:35 PM,27-Jan-2007 9:44:35 AM,33.48516,-122.53500,080.0 080.0,080.0,080.0,449.000,452.701,7.0450,7.0437,34.2645,34.2632,34.2632,34.2633,0.52486,0.61,0.64,0.0246,,,1.6299,37.35,36.399,26.8391,26.8383,0.3985,90.5162,5.1676e+00,9.9990e+03,,,,,,,
CalCOFI,0701JD,061,608,27-Jan-2007 5:44:36 PM,27-Jan-2007 9:44:36 AM,33.48516,-122.53500,080.0 080.0,080.0,080.0,448.000,451.692,7.0519,7.0515,34.2641,34.2628,34.2631,34.2632,0.52628,0.61,0.64,0.0247,,,1.6186,37.02,36.051,26.8378,26.8371,0.3984,90.5195,4.5442e+00,9.9990e+03,,,,,,,
CalCOFI,0701JD,061,608,27-Jan-2007 5:44:37 PM,27-Jan-2007 9:44:37 AM,33.48516,-122.53500,080.0 080.0,080.0,080.0,447.000,450.683,7.0541,7.0544,34.2638,34.2625,34.2630,34.2631,0.52870,0.61,0.64,0.0248,,,1.6195,37.05,36.079,26.8372,26.8366,0.3983,90.5204,5.1633e+00,9.9990e+03,,,,,,,
CalCOFI,0701JD,061,608,27-Jan-2007 5:44:38 PM,27-Jan-2007 9:44:38 AM,33.48516,-122.53500,080.0 080.0,080.0,080.0,446.000,449.673,7.0557,7.0561,34.2638,34.2625,34.2628,34.2629,0.53154,0.61,0.65,0.0248,,,1.6410,37.68,36.740,26.8370,26.8361,0.3987,90.5110,4.9684e+00,9.9990e+03,,,,,,,
CalCOFI,0701JD,061,608,27-Jan-2007 5:44:38 PM,27-Jan-2007 9:44:38 AM,33.48516,-122.53500,080.0 080.0,080.0,080.0,445.000,448.664,7.0691,7.0688,34.2626,34.2613,34.2611,34.2612,0.53503,0.62,0.65,0.0242,,,1.6224,37.13,36.168,26.8343,26.8331,0.3991,90.5025,4.8632e+00,9.9990e+03,,,,,,,
CalCOFI,0701JD,061,608,27-Jan-2007 5:44:39 PM,27-Jan-2007 9:44:39 AM,33.48516,-122.53500,080.0 080.0,080.0,080.0,444.000,447.655,7.0840,7.0849,34.2605,34.2592,34.2591,34.2592,0.53754,0.62,0.66,0.0247,,,1.6168,36.97,35.996,26.8305,26.8293,0.3985,90.5157,4.8009e+00,9.9990e+03,,,,,,,
CalCOFI,0701JD,061,608,27-Jan-2007 5:44:40 PM,27-Jan-2007 9:44:40 AM,33.48516,-122.53500,080.0 080.0,080.0,080.0,443.000,446.645,7.0972,7.0969,34.2600,34.2587,34.2584,34.2585,0.54067,0.62,0.66,0.0245,,,1.6168,36.97,35.996,26.8283,26.8271,0.3990,90.5048,5.3805e+00,9.9990e+03,,,,,,,
CalCOFI,0701JD,061,608,27-Jan-2007 5:44:41 PM,27-Jan-2007 9:44:41 AM,33.48516,-122.53500,080.0 080.0,080.0,080.0,442.000,445.636,7.1121,7.1123,34.2598,34.2585,34.2584,34.2585,0.54479,0.63,0.66,-9.990e-29,,,1.6281,37.30,36.343,26.8260,26.8249,0.3988,90.5097,4.6711e+00,9.9990e+03,,,,,,,
CalCOFI,0701JD,061,608,27-Jan-2007 5:44:42 PM,27-Jan-2007 9:44:42 AM,33.48516,-122.53500,080.0 080.0,080.0,080.0,441.000,444.627,7.1209,7.1195,34.2598,34.2585,34.2584,34.2585,0.54892,0.64,0.67,-9.990e-29,,,1.6650,38.38,37.477,26.8248,26.8239,0.3984,90.5198,4.8630e+00,9.9990e+03,,,,,,,
CalCOFI,0701JD,061,608,27-Jan-2007 5:44:44 PM,27-Jan-2007 9:44:44 AM,33.48516,-122.53500,080.0 080.0,080.0,080.0,440.000,443.617,7.1410,7.1430,34.2585,34.2572,34.2575,34.2576,0.55440,0.64,0.68,0.0245,,,1.6143,36.90,35.919,26.8210,26.8199,0.3989,90.5080,5.1207e+00,9.9990e+03,440,7.17 ,34.256,  .65,,,36.5
CalCOFI,0701JD,061,608,27-Jan-2007 5:44:47 PM,27-Jan-2007 9:44:47 AM,33.48516,-122.53500,080.0 080.0,080.0,080.0,439.000,442.608,7.1598,7.1615,34.2582,34.2569,34.2570,34.2571,0.56131,0.65,0.68,0.0247,,,1.5995,36.46,35.464,26.8181,26.8170,0.3990,90.5057,5.2198e+00,9.9990e+03,,,,,,,
CalCOFI,0701JD,061,608,27-Jan-2007 5:44:53 PM,27-Jan-2007 9:44:53 AM,33.48519,-122.53500,080.0 080.0,080.0,080.0,438.000,441.599,7.1725,7.1752,34.2569,34.2556,34.2562,34.2563,0.56610,0.66,0.69,0.0248,,,1.6152,36.92,35.947,26.8153,26.8144,0.3990,90.5043,5.0043e+00,9.9990e+03,,,,,,,
CalCOFI,0701JD,061,608,27-Jan-2007 5:46:41 PM,27-Jan-2007 9:46:41 AM,33.48533,-122.53500,080.0 080.0,080.0,080.0,437.000,440.590,7.1673,7.1703,34.2576,34.2563,34.2559,34.2560,0.56718,0.66,0.69,0.0246,,,1.6000,36.48,35.480,26.8166,26.8148,0.3998,90.4873,5.3566e+00,9.9990e+03,,,,,,,
CalCOFI,0701JD,061,608,27-Jan-2007 5:47:02 PM,27-Jan-2007 9:47:02 AM,-9.990e-29,-122.53500,080.0 080.0,080.0,080.0,436.000,439.580,7.1789,7.1785,34.2574,34.2561,34.2560,34.2561,0.56821,0.66,0.69,0.0248,,,1.6021,36.54,35.544,26.8148,26.8138,0.3996,90.4914,5.0958e+00,9.9990e+03,,,,,,,
CalCOFI,0701JD,061,608,27-Jan-2007 5:47:03 PM,27-Jan-2007 9:47:03 AM,-9.990e-29,-122.53500,080.0 080.0,080.0,080.0,435.000,438.571,7.1991,7.1997,34.2562,34.2549,34.2549,34.2550,0.57274,0.66,0.70,0.0249,,,1.6208,37.09,36.119,26.8111,26.8100,0.4000,90.4838,4.7272e+00,9.9990e+03,,,,,,,
CalCOFI,0701JD,061,608,27-Jan-2007 5:47:04 PM,27-Jan-2007 9:47:04 AM,33.48582,-122.53500,080.0 080.0,080.0,080.0,434.000,437.562,7.2222,7.2241,34.2563,34.2550,34.2544,34.2545,0.57544,0.67,0.70,0.0245,,,1.6285,37.31,36.356,26.8079,26.8062,0.3998,90.4881,4.9966e+00,9.9990e+03,,,,,,,
CalCOFI,0701JD,061,608,27-Jan-2007 5:47:05 PM,27-Jan-2007 9:47:05 AM,33.48582,-122.53500,080.0 080.0,080.0,080.0,433.000,436.552,7.2524,7.2490,34.2574,34.2561,34.2556,34.2557,0.57640,0.67,0.70,0.0249,,,1.6099,36.77,35.784,26.8046,26.8036,0.3999,90.4855,5.1240e+00,9.9990e+03,,,,,,,
CalCOFI,0701JD,061,608,27-Jan-2007 5:47:06 PM,27-Jan-2007 9:47:06 AM,33.48582,-122.53500,080.0 080.0,080.0,080.0,432.000,435.543,7.2673,7.2650,34.2583,34.2570,34.2569,34.2570,0.57822,0.67,0.71,0.0250,,,1.6263,37.25,36.288,26.8032,26.8024,0.3998,90.4864,5.1976e+00,9.9990e+03,,,,,,,
CalCOFI,0701JD,061,608,27-Jan-2007 5:47:07 PM,27-Jan-2007 9:47:07 AM,33.48582,-122.53500,080.0 080.0,080.0,080.0,431.000,434.534,7.2794,7.2789,34.2578,34.2565,34.2571,34.2572,0.57934,0.67,0.71,0.0247,,,1.6260,37.24,36.279,26.8011,26.8006,0.4000,90.4823,5.6486e+00,9.9990e+03,,,,,,,
CalCOFI,0701JD,061,608,27-Jan-2007 5:47:07 PM,27-Jan-2007 9:47:07 AM,33.48582,-122.53500,080.0 080.0,080.0,080.0,430.000,433.525,7.2880,7.2878,34.2583,34.2570,34.2574,34.2575,0.58086,0.67,0.71,0.0247,,,1.6260,37.24,36.279,26.8003,26.7995,0.4002,90.4778,4.9266e+00,9.9990e+03,,,,,,,
CalCOFI,0701JD,061,608,27-Jan-2007 5:47:08 PM,27-Jan-2007 9:47:08 AM,33.48582,-122.53500,080.0 080.0,080.0,080.0,429.000,432.516,7.2969,7.2970,34.2583,34.2570,34.2578,34.2579,0.58098,0.67,0.71,0.0245,,,1.5752,35.75,34.717,26.7990,26.7986,0.4000,90.4833,5.2994e+00,9.9990e+03,,,,,,,
CalCOFI,0701JD,061,608,27-Jan-2007 5:47:09 PM,27-Jan-2007 9:47:09 AM,33.48582,-122.53500,080.0 080.0,080.0,080.0,428.000,431.506,7.3016,7.3019,34.2590,34.2577,34.2583,34.2584,0.58216,0.68,0.71,0.0249,,,1.5825,35.96,34.942,26.7989,26.7983,0.4001,90.4812,5.1857e+00,9.9990e+03,,,,,,,
CalCOFI,0701JD,061,608,27-Jan-2007 5:47:10 PM,27-Jan-2007 9:47:10 AM,33.48582,-122.53500,080.0 080.0,080.0,080.0,427.000,430.497,7.3068,7.3068,34.2592,34.2579,34.2584,34.2585,0.58263,0.68,0.71,0.0247,,,1.6050,36.62,35.633,26.7983,26.7977,0.4000,90.4826,4.9821e+00,9.9990e+03,,,,,,,